Regional Weather Roundup
Issued by NWS

Home | Current Version | Previous Version | Graphics & Text | Print | Product List | Glossary On
Versions: 1 2 3 4 5 6 7 8 9 10 11 12 13 14 15 16 17 18 19 20 21 22 23 24 25 26 27 28 29 30 31 32 33 34 35 36 37 38 39 40 41 42 43 44 45 46 47 48 49 50
000
ASUS43 KMKX 052311
RWRWI

WISCONSIN REGIONAL WEATHER ROUNDUP
NATIONAL WEATHER SERVICE MILWAUKEE/SULLIVAN WI
600 PM CDT TUE MAY 05 2015

NOTE: "FAIR" INDICATES FEW OR NO CLOUDS BELOW 12,000 FEET WITH NO
SIGNIFICANT WEATHER AND/OR OBSTRUCTIONS TO VISIBILITY.

WIZ001-002-006>008-014>016-023>028-060000-
NORTHWEST WISCONSIN

CITY           SKY/WX    TMP DP  RH WIND       PRES   REMARKS
SUPERIOR ARPT  SUNNY     53  33  46 NE10      30.16S
ASHLAND        SUNNY     55  39  54 N13       30.18S
HAYWARD        SUNNY     72  27  18 S14       30.16S
SIREN          SUNNY     73  31  21 S15G21    30.13S
CUMBERLAND     PTSUNNY   68  28  22 SE16G22   30.16S
RICE LAKE      PTSUNNY   68  28  22 SE15G22   30.18S
CHETEK         CLOUDY    66  33  29 E10G21    30.17S
LADYSMITH      MOSUNNY   68  25  19 SE13G20   30.20S
EAU CLAIRE     CLOUDY    66  36  32 SE17      30.17S
MENOMONIE      CLOUDY    65  38  36 SE16      30.17S
NEW RICHMOND   PTSUNNY   66  31  26 SE17      30.15F
OSCEOLA        PTSUNNY   69  34  27 SE14G23   30.16F
$$

WIZ003>005-009-010-017-018-060000-
NORTH CENTRAL WISCONSIN

CITY           SKY/WX    TMP DP  RH WIND       PRES   REMARKS
MANITOWISH WTR SUNNY     68  32  25 S10       30.20S
ARBOR VITAE    SUNNY     70  28  20 S8        30.20S
WOODRUFF       SUNNY     70  28  20 S8        30.20S
RHINELANDER    MOSUNNY   66  25  21 SE13G21   30.23S
EAGLE RIVER    SUNNY     68  26  21 S3G16     30.21S
LAND O LAKES   SUNNY     70  28  20 S8        30.21S
PHILLIPS       SUNNY     69  30  23 S7        30.19S
TOMAHAWK         N/A     65  26  22 S7        30.23R
MEDFORD        PTSUNNY   62  29  28 SE10      30.21F
MERRILL        PTSUNNY   64  25  22 SE12G17   30.23S
$$

WIZ029-030-035-036-043>047-060000-
CENTRAL WISCONSIN

CITY           SKY/WX    TMP DP  RH WIND       PRES   REMARKS
WAUSAU         CLOUDY    64  20  18 SE10      30.21S
MOSINEE        MOSUNNY   63  21  20 SE9       30.24S
MARSHFIELD     CLOUDY    63  33  32 SE13G21   30.21F
STEVENS POINT  CLOUDY    61  31  31 SE9       30.23S
WAUPACA        CLOUDY    64  31  28 E12       30.23F
WAUTOMA        CLOUDY    60  48  64 SE9       30.23F
WISC RAPIDS    CLOUDY    63  34  33 E10       30.23F
CAMP DOUGLAS   CLOUDY    55  55 100 SE13      30.21S
$$

WIZ011>013-019>022-031-037>040-048>050-060000-
NORTHEAST WISCONSIN

CITY           SKY/WX    TMP DP  RH WIND       PRES   REMARKS
ANTIGO         MOSUNNY   62  31  30 S13       30.24S
SHAWANO        PTSUNNY   65  21  18 E9        30.25S
OCONTO         CLOUDY    63  28  26 E5        30.25F
STURGEON BAY   CLOUDY    63  27  25 E5        30.28F
GREEN BAY      CLOUDY    64  24  21 SE7       30.25F
MANITOWOC      PTSUNNY   58  38  47 SE3       30.26F
APPLETON       PTSUNNY   63  34  34 SE12      30.24F
CLINTONVILLE   CLOUDY    63  14  15 SE9       30.24F
OSHKOSH        CLOUDY    59  46  62 E9        30.23F
$$

WIZ032>034-041-042-053>061-060000-
SOUTHWEST WISCONSIN

CITY           SKY/WX    TMP DP  RH WIND       PRES   REMARKS
LA CROSSE      LGT RAIN  57  53  86 SE6       30.18F
SPARTA         DRIZZLE   55  49  82 E10       30.21S
VIROQUA        CLOUDY    53  53 100 E13       30.19S
BOSCOBEL       LGT RAIN  55  52  89 NE5       30.19S FOG
PRAIRIE DU CHI CLOUDY    54  53  96 E8        30.16F
PLATTEVILLE    CLOUDY    56  54  94 E16       30.17F
$$

WIZ056-057-062-063-064-067-068-060000-
SOUTH CENTRAL WISCONSIN

CITY           SKY/WX    TMP DP  RH WIND       PRES   REMARKS
REEDSBURG      CLOUDY    54  51  89 E6        30.21R
BARABOO/DELLS  NOT AVBL
LONE ROCK      CLOUDY    56  52  86 E12       30.20S
MINERAL POINT  CLOUDY    55  54  94 E9        30.19S FOG
MADISON        CLOUDY    56  50  80 E12       30.21S
MIDDLETON      CLOUDY    57  52  84 E8        30.21F
WATERTOWN      CLOUDY    54  50  88 E7        30.23R
MONROE         CLOUDY    52  52 100 E10       30.19S
JANESVILLE     CLOUDY    52  50  93 E12       30.21S
$$

WIZ051-052-058>065-066-070>072-060000-
SOUTHEAST WISCONSIN

CITY           SKY/WX    TMP DP  RH WIND       PRES   REMARKS
MILWAUKEE      CLOUDY    47  42  83 NE8       30.25S
WAUKESHA       CLOUDY    48  45  87 E8        30.25S
MILWAUKEE/TIMM NOT AVBL
RACINE         CLOUDY    46  43  89 N5        30.26S
BURLINGTON     CLOUDY    47  46  95 E8        30.22F
KENOSHA        CLOUDY    48  46  93 NE12      30.23F
FOND DU LAC    CLOUDY    56  47  71 E9        30.25S
SHEBOYGAN      CLOUDY    54  43  66 S3        30.25S
WEST BEND      CLOUDY    50  43  76 E8        30.24F
JUNEAU         CLOUDY    54  47  76 E10       30.24S
$$

LSZ147-162-060000-
LAKE SUPERIOR

STATION/POSITION TIME  TEMP    WIND        PRES    WAVE
                       AIR SEA DIR/SP/G            HT/PER
                 (UTC) (F)     (DEG/KT/KT) (MB)    (FT/S)
W MID LAKE BUOY  2250   40 36   50/ 10/ 10 1023.5F   0
DEVILS ISLAND    2300   44     100/ 16/ 18 1022.5F
PORT WING        2240   46      20/ 16/ 18 1020.3F
SAXON HARBOR     2240   51      60/  5/ 16 1021.0F
$$

LMZ867-665-643>646-060000-
LAKE MICHIGAN

STATION/POSITION TIME  TEMP    WIND        PRES    WAVE
                       AIR SEA DIR/SP/G            HT/PER
                 (UTC) (F)     (DEG/KT/KT) (MB)    (FT/S)
CHAMBERS ISLAND  2200   51     350/  4/  6 1025.1F
NORTHPORT PIER   2200   49     120/  2/  4 1025.1F
SISTER BAY       2232   63     140/  7/  9   N/A
KEWAUNEE LAKESHO 2200   46      30/  7/  9 1024.2F
SHEBOYGAN LAKESH 2300   44      40/  4/  5 1025.1F
PORT WASHINGTON  2200   50      30/  4/  5 1025.1F
ATWATER BUOY     2200   45      10/  8/ 10 1025.5F
MILWAUKEE LAKESH 2200   46      30/ 10/ 11   N/A
KENOSHA   LAKESH 2300   45      20/ 11/ 12 1023.7S
$$

TC  - TEMPERATURE IN CELSIUS
VSB - VISIBILITY IN STATUTE MILES
WCI - WIND CHILL INDEX
HX  - HEAT INDEX




USA.gov is the U.S. government's official web portal to all federal, state and local government web resources and services.